Regional Weather Roundup
Issued by NWS

Home | Current Version | Previous Version | Text Only | Print | Product List | Glossary On
Versions: 1 2 3 4 5 6 7 8 9 10 11 12 13 14 15 16 17 18 19 20 21 22 23 24 25 26 27 28 29 30 31 32 33 34 35 36 37 38 39 40 41 42 43 44 45 46 47 48 49 50
000
ASUS44 KBMX 190710
RWRAL

ALABAMA REGIONAL WEATHER ROUNDUP
NATIONAL WEATHER SERVICE BIRMINGHAM AL
100 AM CST SUN NOV 19 2017

NOTE: "FAIR" INDICATES FEW OR NO CLOUDS BELOW 12,000 FEET
WITH NO SIGNIFICANT WEATHER AND/OR OBSTRUCTIONS TO VISIBILITY.

THE REMARK "TC" DENOTES TEMPERATURE IN DEGREES CELSIUS.

ALZ001>011-014-016>018-020-190800-
NORTH ALABAMA

CITY           SKY/WX    TMP DP  RH WIND       PRES   REMARKS
MUSCLE SHOALS  PTCLDY    46  36  68 NW13      30.05R
HUNTSVILLE     CLOUDY    47  39  74 NW10      30.01R
DECATUR        CLOUDY    46  38  73 NW12G22   30.02S
HALEYVILLE     CLOUDY    44  39  82 NW6       30.05R
GADSDEN        CLOUDY    49  39  68 N16G23    29.98R
$$

ALZ012-013-022-023-030>036-040>044-190800-
WEST CENTRAL ALABAMA

CITY           SKY/WX    TMP DP  RH WIND       PRES   REMARKS
TUSCALOOSA     CLOUDY    50  39  66 N10G24    30.04R
DEMOPOLIS        N/A     51  39  63 NW6       30.04R
$$

ALZ015-024>026-033>036-041>044-190800-
CENTRAL ALABAMA

CITY           SKY/WX    TMP DP  RH WIND       PRES   REMARKS
BIRMINGHAM     CLOUDY    49  38  65 N20G30    30.02R
MONTGOMERY     CLOUDY    54  44  69 NW16      29.96R
SHELBY CO ARPT CLOUDY    50  40  68 N14G28    30.00R
MAXWELL AFB    CLOUDY    55  45  70 NW16G28   29.95R
GREENVILLE     CLOUDY    54  44  69 NW10G20   29.94R
SELMA          CLOUDY    52  41  66 NW16G29   29.99R
PRATTVILLE     CLOUDY    53  46  77 NW12G18   29.96R
BESSEMER       CLOUDY    48  39  71 NW9G22    30.01R
TALLADEGA      CLOUDY    50  42  74 N10G18    29.97R
PELL CITY      CLOUDY    50  41  71 NW12      29.98R
MARION         CLOUDY    50  41  70 NW14G23   30.01R
SYLACAUGA      CLOUDY    51  43  73 N7G21     29.97R
$$

ALZ019-021-028-029-037-038-045>048-190800-
EAST CENTRAL ALABAMA

CITY           SKY/WX    TMP DP  RH WIND       PRES   REMARKS
ANNISTON       CLOUDY    50  40  68 VRB7G18   29.95R
ALEXANDER CITY CLOUDY    52  43  73 NW9G20    29.94R
AUBURN         CLOUDY    53  48  83 N15G21    29.91R
$$

ALZ051>064-190800-
SOUTHWEST ALABAMA

CITY           SKY/WX    TMP DP  RH WIND       PRES   REMARKS
MOBILE         CLOUDY    58  48  69 NW15G30   30.00R
BROOKLEY FIELD CLOUDY    61  52  72 NW17      29.98R
EVERGREEN      CLOUDY    56  49  77 N13G20    29.97R
$$

ALZ049-050-065>069-190800-
SOUTHEAST ALABAMA

CITY           SKY/WX    TMP DP  RH WIND       PRES   REMARKS
DOTHAN         CLOUDY    60  56  86 NW18G29   29.91R
OZARK          CLOUDY    58  50  76 NW14G26   29.90R
TROY           CLOUDY    55  50  83 NW14G24   29.93R
EUFAULA        CLOUDY    60  54  80 VRB6G20   29.87R
$$



USA.gov is the U.S. government's official web portal to all federal, state and local government web resources and services.